Temperature
20 21 22 22 22 22 21 19 19 19 18 18 18 18 18 18 18 18 18 18 18 18 17 17 17 17 17 16 16 16 16 15 15 15 14 14 14 14 14 14 14 14 13 14
21 22 22 22 22 22 21 21 20 19 19 19 19 18 18 18 18 18 18 18 17 17 17 17 17 17 16 16 16 16 15 15 15 14 14 14 14 13 13 13 13 13 13 13
19 20 21 21 21 21 21 21 20 19 19 18 17 17 18 18 18 18 18 18 17 17 17 17 17 16 16 16 15 15 15 15 14 14 14 14 13 13 13 13 13 13 13 12
18 20 20 20 21 22 21 21 20 20 19 18 19 19 19 19 18 18 18 17 17 17 17 17 16 16 16 15 15 15 14 14 14 14 13 13 13 13 13 12 12 12 12 12
17 18 19 21 22 21 21 21 20 19 19 19 19 18 17 18 19 19 18 18 17 17 17 16 16 16 15 15 15 14 14 14 13 13 13 13 12 12 12 12 12 12 11 11
16 19 19 20 21 22 21 20 20 19 18 18 18 16 16 18 18 18 18 17 17 16 16 16 15 15 15 14 14 14 13 13 13 12 12 12 12 12 11 11 11 11 11 11
16 17 18 19 21 22 20 20 21 20 19 18 18 19 19 18 18 18 17 17 17 16 16 15 15 15 14 14 13 13 13 12 12 12 12 11 11 11 11 11 11 11 10 10
15 17 18 20 20 20 20 21 21 21 20 20 20 20 19 18 18 17 17 16 16 16 15 15 14 14 14 13 13 13 12 12 12 11 11 11 11 11 10 10 10 10 10 10
16 17 19 20 21 22 22 22 22 21 21 20 20 19 18 18 18 17 17 16 16 15 15 14 14 14 13 13 12 12 12 12 11 11 11 10 10 10 10 10 9 9 9 9
16 17 18 20 21 22 22 22 22 22 21 20 20 19 18 18 17 17 16 16 15 15 14 14 14 13 13 12 12 12 11 11 11 11 10 10 10 10 9 9 9 9 9 8
16 17 18 19 21 21 22 22 21 21 21 20 19 18 18 17 17 16 16 15 15 14 14 14 13 13 12 12 12 11 11 11 11 10 10 10 10 9 9 9 8 8 8 8
16 17 16 19 21 21 21 21 20 20 19 19 19 18 18 17 16 16 15 15 14 14 14 13 13 12 12 12 11 11 11 10 10 10 10 9 9 9 9 8 8 8 8 7
20 21 20 20 20 20 20 20 20 20 19 18 18 18 17 16 16 15 15 14 14 14 13 13 12 12 12 11 11 11 10 10 10 10 9 9 9 8 8 8 8 8 7 7
20 20 19 19 19 20 20 19 19 19 18 18 18 17 16 16 15 15 14 14 14 13 13 12 12 12 11 11 11 10 10 10 10 9 9 9 8 8 8 7 7 7 7 7
19 20 19 19 19 19 18 18 18 17 17 17 16 16 16 15 15 14 14 13 13 13 12 12 12 11 11 11 10 10 10 10 9 9 8 8 8 8 7 7 7 7 7 7
18 18 18 18 18 18 17 17 17 16 16 16 16 15 15 15 14 14 13 13 12 12 12 12 11 11 11 10 10 10 9 9 9 8 8 8 8 7 7 7 6 6 6 6
17 16 17 17 17 17 17 16 16 16 16 15 15 15 14 14 14 13 13 12 12 12 12 11 11 11 10 10 10 9 9 9 8 8 8 7 7 7 7 6 6 6 6 6
16 16 16 16 16 16 16 16 15 15 15 15 14 14 14 13 13 13 12 12 12 11 11 11 10 10 10 10 9 9 9 8 8 8 7 7 7 7 6 6 6 6 5 5
15 15 15 15 15 15 15 15 15 15 14 14 14 13 13 13 13 12 12 11 11 11 11 10 10 10 9 9 9 9 8 8 8 7 7 7 6 6 6 6 5 5 5 5
14 14 14 14 14 14 14 14 14 14 14 13 13 13 12 12 12 12 11 11 11 11 10 10 10 9 9 9 8 8 8 8 7 7 7 6 6 6 6 5 5 5 5 5
14 13 13 13 13 13 13 13 13 13 13 13 13 12 12 12 12 11 11 11 11 10 10 9 9 9 9 8 8 8 8 7 7 7 6 6 6 5 5 5 5 5 4 4
13 13 13 13 13 12 12 12 12 12 12 12 12 12 12 11 11 11 10 10 10 10 9 9 9 8 8 8 8 7 7 7 6 6 6 6 5 5 5 5 4 4 4 4
12 12 12 12 12 12 12 12 12 12 11 11 11 11 11 11 10 10 10 10 9 9 9 8 8 8 8 7 7 7 7 6 6 6 5 5 5 5 4 4 4 4 4 4
11 11 11 11 11 11 11 11 11 11 11 11 10 10 10 10 10 10 9 9 9 8 8 8 8 8 7 7 7 6 6 6 5 5 5 5 4 4 4 4 4 4 3 3
10 10 10 10 10 10 10 10 10 10 10 10 10 10 9 9 9 9 9 8 8 8 8 7 7 7 7 6 6 6 5 5 5 4 4 4 4 4 4 3 3 3 3 3
10 9 9 9 10 10 9 9 9 9 9 9 9 9 9 8 8 8 8 8 7 7 7 7 6 6 6 6 5 5 5 4 4 4 4 4 4 3 3 3 3 3 2 2
9 9 9 9 9 9 9 9 9 8 8 8 8 8 8 8 7 7 7 7 7 6 6 6 6 6 5 5 5 4 4 4 4 3 3 3 3 3 3 3 2 2 2 2
Wind_Speed
6 6 6 6 7 8 7 8 8 9 12 14 16 16 15 13 11 11 9 9 8 7 5 4 4 4 4 4 4 5 6 5 3 3 3 4 4 4 4 4 5 4 5 5
2 3 3 4 7 8 7 7 7 7 7 7 10 10 11 13 14 12 11 10 8 8 7 6 5 5 4 4 3 5 5 4 3 3 4 4 4 4 5 5 5 5 5 5
2 4 2 4 9 10 7 8 10 10 10 10 11 16 18 16 15 13 12 10 10 8 7 6 6 5 5 4 4 5 4 3 3 3 4 4 4 5 5 5 4 5 5 5
1 1 4 9 7 8 9 8 9 9 11 18 17 16 13 13 14 13 12 11 9 8 7 6 5 5 5 5 5 5 4 3 2 3 3 4 4 4 4 3 3 4 5 5
3 3 6 7 4 7 8 6 7 10 12 12 10 8 3 7 11 13 12 10 9 8 7 7 6 6 7 6 5 4 3 2 2 2 2 3 4 4 3 3 4 4 4 5
5 4 6 9 6 4 7 4 5 11 14 14 13 9 9 10 11 11 10 10 9 8 8 8 6 7 8 6 4 3 1 0 1 1 2 2 3 3 2 2 3 4 5 5
6 5 8 8 4 6 7 9 6 12 16 18 13 10 10 13 11 11 10 10 10 10 8 7 7 7 7 5 3 2 1 1 2 2 2 2 2 2 3 3 4 5 5 5
6 5 9 6 6 8 9 4 8 11 14 13 9 10 13 15 14 13 11 10 10 10 8 6 7 8 6 4 3 2 2 1 2 3 3 2 2 3 3 3 4 5 5 6
9 9 6 4 7 5 6 7 7 10 10 11 12 11 13 13 14 13 12 11 9 10 8 6 6 7 6 4 3 3 2 0 2 2 3 2 2 3 3 3 3 4 4 5
3 5 4 2 2 3 5 7 7 9 11 13 13 13 13 13 12 11 10 9 8 9 8 6 5 6 6 5 4 3 2 1 1 2 3 3 2 2 2 3 4 4 5 6
3 3 1 1 2 4 5 7 9 9 9 13 15 13 13 13 12 11 9 8 9 9 9 8 6 6 5 5 5 4 2 2 2 2 2 3 3 3 4 4 5 5 5 5
7 8 7 7 6 6 8 8 10 10 9 10 13 14 12 11 10 10 10 8 8 8 8 7 6 6 5 5 5 5 3 3 3 3 3 3 4 5 7 7 10 11 10 9
6 6 6 5 5 6 8 9 9 10 12 11 10 12 13 10 9 10 9 9 9 9 8 7 6 6 6 6 5 5 5 4 3 3 3 3 3 4 6 8 9 10 11 12
5 6 4 5 6 6 7 8 8 8 8 11 11 10 11 9 9 10 10 9 9 8 7 7 7 7 7 6 6 5 5 5 5 4 4 4 5 5 5 6 7 7 8 12
4 6 7 6 6 7 7 8 9 8 8 7 8 10 11 10 10 9 8 7 7 7 7 7 7 7 6 6 6 6 5 4 4 4 5 5 5 5 5 6 6 7 7 8
4 3 6 7 8 8 8 9 10 9 9 8 8 9 10 10 9 7 7 8 8 8 8 7 8 8 6 6 6 5 5 7 6 4 4 5 5 5 5 6 7 7 7 8
5 5 6 7 8 8 8 9 10 10 9 9 10 9 8 8 7 6 6 7 8 8 8 8 8 7 6 7 7 5 5 6 7 5 4 5 5 6 6 6 7 7 8 9
8 8 8 9 9 9 8 8 9 9 9 8 9 9 9 10 9 9 8 6 5 5 6 7 7 6 6 7 6 5 5 5 5 5 6 6 6 6 7 7 8 9 9 9
5 6 6 7 7 8 8 8 8 8 8 8 9 9 9 9 9 8 6 7 7 7 7 7 9 7 7 8 7 5 5 6 6 6 6 8 8 7 7 8 8 9 9 9
3 4 5 5 5 6 6 6 7 7 7 8 8 8 7 7 7 7 7 7 8 8 7 7 7 7 8 8 8 5 6 7 7 6 6 7 7 8 8 8 9 9 9 9
3 4 4 5 5 5 6 6 7 6 7 8 9 9 8 7 7 7 6 6 7 7 7 9 7 6 7 8 8 6 6 7 7 7 7 7 8 8 8 9 9 9 9 9
3 3 4 4 5 4 4 5 6 6 6 6 7 7 7 6 6 6 7 7 7 8 6 6 6 8 9 9 6 6 7 7 7 7 7 7 8 8 9 9 9 9 9 9
3 3 4 4 5 4 3 3 4 5 6 7 7 7 7 7 6 6 6 6 5 8 6 6 8 11 12 7 5 6 7 7 8 8 8 8 8 8 9 10 9 9 9 9
2 3 3 3 3 3 3 3 4 4 5 6 7 8 7 5 4 6 6 6 8 8 6 8 11 12 10 5 5 6 6 7 7 8 8 8 8 8 9 9 10 10 10 11
2 2 2 3 3 4 4 4 3 3 3 3 4 5 5 6 6 5 5 5 7 7 5 7 10 10 6 4 5 6 6 7 8 7 7 8 8 9 9 9 9 10 9 9
2 3 3 4 4 4 4 4 4 4 4 3 3 3 3 3 4 4 4 5 6 6 5 4 5 5 4 5 6 6 7 8 9 8 8 8 9 9 9 9 11 10 9 9
2 2 2 2 2 3 4 4 4 4 5 5 4 4 4 3 3 4 4 4 4 4 4 4 5 5 5 6 6 7 7 7 7 8 8 8 8 9 9 11 9 9 9 9
Wind_Direction
224 226 199 200 201 192 176 177 176 200 187 194 184 174 168 162 154 150 151 152 152 151 147 133 119 109 102 94 85 88 86 77 62 38 31 21 10 357 353 358 359 350 353 350
287 252 213 215 216 200 194 179 176 165 202 197 168 151 156 161 159 159 162 161 157 153 148 145 139 129 114 104 100 94 88 76 52 40 31 16 1 358 359 353 350 359 358 352
264 302 16 257 221 201 199 188 168 185 203 159 157 171 176 173 169 168 166 161 159 157 155 154 152 141 133 130 111 98 93 77 55 45 31 4 0 6 355 343 348 349 344 345
182 41 225 243 245 197 190 207 193 180 172 171 177 180 178 171 168 167 165 160 159 154 147 144 140 132 123 111 106 99 87 66 44 40 20 2 5 357 342 338 341 339 338 336
140 203 270 285 253 175 167 221 197 174 170 165 137 112 155 181 167 166 164 158 155 152 141 133 129 125 110 101 100 95 86 64 33 35 18 4 354 339 336 345 343 337 336 337
144 178 233 248 258 184 123 221 219 167 159 150 134 160 205 185 160 152 148 146 143 137 126 126 131 122 110 109 105 109 130 107 351 6 7 344 329 325 329 336 329 331 331 327
170 207 253 252 247 119 150 221 200 169 161 162 173 187 169 155 152 149 144 144 140 134 134 142 140 123 118 121 144 185 170 78 14 350 332 317 325 324 327 336 338 334 325 319
160 194 246 244 150 176 206 186 160 168 169 168 156 133 141 151 151 149 144 143 141 138 141 147 143 132 132 157 191 174 123 62 356 338 338 360 351 337 338 341 335 327 325 322
186 210 241 223 192 194 158 151 159 164 166 151 142 146 150 153 153 153 150 151 148 145 148 156 157 147 153 189 184 153 121 31 327 335 337 338 337 331 333 334 326 317 316 313
196 251 249 206 153 137 147 150 151 149 149 150 151 153 152 154 155 154 153 154 151 149 156 171 178 171 177 186 172 152 163 249 288 311 315 320 316 306 307 308 309 308 308 305
202 240 107 310 186 154 127 122 125 131 144 153 150 153 156 159 161 162 159 157 156 162 170 181 184 188 193 185 166 166 194 234 259 267 277 293 293 276 275 265 263 280 281 279
209 208 182 210 208 161 140 143 145 140 139 149 154 156 156 161 164 163 163 161 162 167 174 184 186 196 203 193 177 176 203 232 241 252 266 272 285 301 291 282 292 293 286 283
203 194 185 188 177 158 153 154 152 152 154 154 155 154 155 158 162 161 164 166 173 179 183 186 188 200 209 200 189 189 205 223 235 244 253 263 270 280 298 307 304 301 296 294
178 142 152 175 179 168 152 149 143 140 149 154 155 152 152 150 154 163 173 180 177 176 181 186 191 210 216 201 195 202 211 226 229 235 244 253 259 265 270 284 300 302 298 295
203 183 181 172 155 150 143 136 135 143 145 146 150 154 156 159 168 178 179 173 167 175 188 193 200 218 218 201 199 207 212 224 231 237 243 251 259 267 272 275 279 286 294 299
203 168 154 156 163 161 152 153 157 165 163 159 160 166 169 170 172 172 172 168 171 191 203 204 212 220 211 201 202 210 221 237 240 239 247 257 262 267 272 275 279 282 284 287
170 183 181 180 180 176 173 171 171 171 168 168 172 168 160 155 158 171 185 190 193 202 206 207 215 219 210 203 201 210 220 241 254 254 247 252 258 263 266 270 274 278 279 279
193 199 190 181 180 182 181 175 170 169 172 176 167 161 164 170 181 192 197 194 192 208 218 216 216 216 215 210 207 211 218 230 234 240 248 255 261 262 264 268 272 277 281 284
188 188 186 180 176 173 177 178 176 174 169 162 162 171 178 185 191 195 192 187 196 217 231 227 224 216 216 218 215 212 219 229 239 247 252 262 268 267 266 269 272 275 277 281
181 179 177 175 168 165 170 171 168 169 171 167 166 171 181 192 193 192 192 202 212 217 220 223 220 219 220 224 223 216 220 229 240 251 256 258 263 268 269 269 271 274 275 275
170 167 165 166 167 165 167 166 167 176 180 174 175 184 192 199 198 192 194 220 235 226 222 228 222 222 223 227 230 222 225 234 241 248 255 260 264 268 270 271 273 274 275 276
170 170 177 172 164 171 176 170 172 177 180 183 187 188 189 198 204 207 212 218 228 229 222 224 225 230 231 233 224 225 232 238 244 249 254 258 262 268 271 272 273 275 275 274
173 168 171 176 178 181 176 175 175 178 187 193 195 196 199 204 200 201 230 234 228 231 223 224 232 239 243 237 229 231 237 243 249 252 255 258 262 266 269 271 273 273 274 275
177 176 176 169 150 150 180 204 194 192 197 202 203 201 197 199 216 220 221 226 225 230 227 232 238 244 248 235 232 238 245 251 254 257 258 261 263 265 267 269 272 272 272 273
190 178 163 156 169 195 204 199 195 202 201 211 218 215 208 200 206 219 218 221 228 234 232 239 246 253 249 238 239 244 249 253 258 259 255 262 265 267 270 271 271 272 273 273
207 205 208 205 202 201 197 192 200 206 202 212 229 229 223 218 214 212 215 223 229 232 227 230 238 244 241 241 244 249 252 264 273 270 263 266 267 269 271 271 270 271 272 272
226 221 219 226 226 205 196 193 200 208 205 202 213 223 220 220 222 224 224 224 226 230 232 234 235 237 241 244 247 251 253 256 260 263 265 266 267 268 269 269 270 271 270 272
Height
1496 1492 1493 1493 1494 1495 1501 1508 1516 1514 1513 1509 1508 1510 1513 1517 1521 1524 1527 1529 1531 1533 1534 1536 1537 1537 1538 1538 1539 1539 1538 1538 1537 1537 1536 1535 1533 1532 1531 1530 1529 1527 1526 1525
1494 1489 1489 1492 1491 1492 1494 1497 1502 1505 1508 1501 1505 1509 1513 1516 1519 1522 1524 1527 1529 1531 1533 1534 1535 1536 1537 1537 1538 1538 1538 1537 1537 1536 1534 1533 1532 1531 1530 1528 1527 1525 1524 1522
1504 1495 1493 1499 1489 1488 1490 1489 1494 1502 1500 1499 1504 1506 1508 1511 1515 1518 1521 1524 1527 1529 1531 1533 1534 1535 1536 1536 1537 1537 1536 1536 1535 1534 1533 1532 1531 1529 1528 1526 1525 1523 1522 1520
1506 1502 1511 1493 1476 1477 1481 1482 1482 1485 1488 1491 1494 1498 1503 1507 1510 1514 1518 1522 1525 1527 1529 1531 1533 1534 1535 1535 1535 1535 1535 1534 1534 1533 1531 1530 1529 1528 1526 1524 1523 1521 1519 1518
1509 1510 1503 1486 1475 1475 1481 1484 1478 1481 1485 1489 1494 1501 1506 1507 1509 1511 1515 1519 1523 1526 1528 1530 1531 1532 1533 1533 1534 1534 1533 1533 1532 1531 1529 1528 1527 1525 1524 1522 1520 1519 1517 1515
1507 1507 1508 1487 1470 1468 1475 1486 1476 1477 1481 1487 1493 1503 1502 1502 1506 1510 1514 1518 1521 1524 1526 1528 1529 1531 1531 1531 1532 1531 1531 1531 1530 1529 1527 1526 1525 1523 1522 1520 1518 1516 1514 1512
1503 1504 1495 1475 1469 1470 1488 1484 1473 1474 1477 1481 1485 1487 1491 1498 1504 1508 1512 1516 1519 1522 1524 1526 1528 1529 1529 1529 1530 1530 1529 1528 1528 1527 1525 1524 1522 1521 1519 1517 1515 1513 1511 1509
1500 1503 1494 1467 1468 1472 1471 1467 1469 1472 1474 1477 1481 1486 1490 1495 1500 1505 1509 1513 1516 1519 1522 1524 1525 1527 1527 1527 1527 1527 1527 1526 1525 1524 1523 1521 1520 1518 1516 1514 1512 1510 1507 1505
1480 1479 1467 1463 1463 1463 1464 1466 1468 1470 1474 1477 1480 1484 1489 1493 1498 1502 1507 1510 1514 1517 1519 1521 1523 1524 1524 1525 1525 1524 1524 1523 1523 1522 1520 1519 1517 1515 1513 1511 1509 1506 1504 1501
1473 1468 1463 1462 1462 1463 1464 1465 1467 1469 1472 1476 1479 1483 1487 1492 1496 1500 1504 1508 1511 1514 1516 1518 1520 1521 1521 1522 1522 1522 1521 1520 1520 1519 1517 1516 1514 1512 1510 1508 1505 1503 1500 1497
1469 1465 1463 1462 1462 1463 1464 1465 1467 1470 1472 1475 1478 1482 1486 1490 1494 1498 1502 1505 1508 1510 1512 1514 1516 1517 1518 1519 1519 1518 1518 1517 1516 1515 1514 1512 1511 1509 1507 1505 1503 1500 1497 1494
1465 1459 1460 1460 1460 1462 1463 1464 1466 1469 1472 1475 1477 1480 1484 1488 1492 1495 1499 1502 1505 1507 1509 1511 1513 1514 1515 1515 1515 1515 1514 1513 1513 1511 1510 1508 1507 1505 1503 1501 1499 1496 1493 1491
1454 1455 1456 1457 1459 1460 1461 1463 1466 1468 1470 1473 1476 1479 1482 1486 1490 1493 1496 1499 1501 1503 1506 1507 1509 1510 1510 1511 1511 1510 1510 1509 1508 1507 1506 1504 1502 1500 1497 1495 1494 1491 1488 1486
1451 1452 1454 1455 1457 1458 1460 1462 1464 1467 1469 1471 1474 1478 1481 1484 1487 1490 1493 1495 1498 1500 1502 1503 1504 1505 1506 1506 1506 1506 1505 1505 1504 1502 1501 1499 1497 1495 1492 1489 1487 1484 1482 1480
1449 1450 1451 1452 1454 1456 1458 1460 1462 1465 1467 1470 1473 1475 1478 1480 1483 1486 1489 1492 1494 1496 1498 1499 1500 1501 1501 1501 1501 1501 1500 1500 1499 1497 1496 1494 1492 1490 1487 1485 1482 1478 1475 1473
1446 1447 1448 1449 1451 1453 1455 1457 1459 1461 1464 1467 1470 1472 1475 1478 1481 1484 1486 1488 1490 1491 1493 1494 1495 1495 1496 1496 1496 1496 1495 1494 1493 1492 1490 1488 1486 1484 1481 1479 1476 1472 1469 1466
1443 1444 1445 1446 1448 1449 1451 1453 1455 1458 1461 1464 1467 1470 1473 1475 1478 1480 1482 1484 1485 1487 1488 1489 1490 1490 1491 1491 1490 1490 1490 1489 1488 1486 1484 1482 1480 1478 1475 1472 1469 1466 1463 1460
1438 1440 1441 1442 1443 1446 1448 1450 1453 1455 1458 1460 1464 1466 1469 1471 1473 1475 1477 1479 1481 1482 1483 1483 1484 1485 1485 1485 1485 1484 1484 1483 1481 1480 1478 1476 1474 1471 1469 1466 1463 1459 1456 1453
1434 1436 1437 1439 1440 1442 1444 1447 1449 1452 1455 1457 1460 1462 1464 1467 1469 1471 1473 1474 1475 1476 1477 1478 1478 1478 1478 1478 1478 1478 1477 1476 1474 1473 1471 1469 1467 1464 1461 1459 1456 1452 1449 1445
1430 1432 1433 1435 1437 1439 1441 1443 1446 1449 1451 1453 1456 1458 1460 1462 1464 1466 1467 1468 1469 1470 1471 1472 1472 1472 1472 1472 1472 1471 1470 1469 1467 1466 1464 1462 1459 1456 1454 1451 1448 1445 1441 1437
1427 1429 1430 1432 1434 1436 1438 1440 1442 1445 1447 1449 1451 1453 1455 1457 1459 1460 1461 1462 1463 1465 1465 1465 1465 1465 1465 1465 1465 1464 1463 1462 1460 1458 1456 1454 1451 1449 1446 1443 1440 1437 1433 1429
1425 1426 1428 1429 1431 1433 1435 1437 1439 1441 1443 1445 1447 1449 1451 1452 1454 1455 1455 1456 1457 1458 1458 1459 1459 1459 1458 1458 1458 1457 1456 1454 1453 1451 1449 1446 1444 1441 1438 1435 1432 1428 1425 1421
1422 1424 1425 1427 1428 1430 1432 1434 1436 1437 1439 1441 1443 1444 1446 1447 1448 1449 1450 1451 1451 1452 1452 1452 1452 1452 1452 1451 1450 1449 1448 1447 1445 1443 1441 1439 1436 1433 1430 1426 1423 1420 1416 1412
1420 1421 1423 1424 1426 1427 1429 1430 1432 1434 1435 1437 1438 1439 1441 1442 1443 1443 1444 1445 1445 1445 1445 1445 1446 1445 1445 1444 1443 1442 1441 1439 1437 1435 1433 1431 1428 1425 1421 1418 1414 1411 1407 1403
1418 1419 1420 1421 1422 1424 1425 1427 1428 1430 1431 1432 1433 1435 1436 1436 1437 1437 1438 1438 1439 1439 1439 1439 1439 1439 1438 1437 1436 1435 1433 1432 1430 1428 1425 1422 1419 1416 1413 1409 1405 1402 1398 1394
1415 1416 1417 1418 1419 1421 1422 1423 1424 1425 1426 1427 1428 1429 1430 1431 1432 1432 1432 1432 1433 1433 1433 1432 1432 1431 1431 1430 1429 1427 1426 1424 1422 1420 1417 1414 1411 1407 1404 1400 1396 1393 1389 1385
1413 1413 1414 1415 1416 1417 1418 1419 1419 1420 1421 1422 1423 1424 1425 1425 1426 1426 1426 1426 1426 1426 1426 1426 1425 1424 1423 1422 1421 1419 1418 1416 1413 1411 1408 1405 1402 1398 1395 1391 1388 1384 1380 1376